Weather in Mahdalynivka

Ukraine / Dnipropetrovsk Region     48°54′56″N   34°55′05″E
temp.,
°C
wind,
m/s
gust,
m/s
humid.,
%
clouds,
%
prec.,
mm/h
press.,
hPa
HPBL,
m
2 december, thu
thu223:00−1wnw59885 0.1 1006394
02:00−3w37845 0.1 1009166
05:00−3sw348541 0.0 101090
08:00−2s498173 0.0 1011233
11:00+2s6136888 0.0 1010544
14:00+5s71569100 0.0 1008678
17:00+4s7158423 0.0 1008413
20:00+6ssw7168996 0.0 1008588
3 december, fri
fri323:00+7sw71490100 0.0 1009666
02:00+8ssw51287100 0.0 1008503
05:00+8s61391100 0.0 1008494
08:00+7s71489100 0.0 1009457
11:00+10s8146998 0.0 1008819
14:00+10s815565 0.0 1007850
17:00+9s8167340 0.0 1006622
20:00+9ssw71490100 0.0 1007617
4 december, sat
sat423:00+9sw61192100 0.1 1008515
02:00+4nw5893100 0.2 1011446
05:00+2nnw3698100 0.4 1012271
08:00+3nnw4574100 0.4 1014526
11:00+3nnw4462100 0.0 1015561
14:00+4n3452100 0.0 1015586
17:00+1nne34635 0.0 101664
20:000ene346819 0.0 101678
5 december, sun
sun523:00−1ene3668100 0.0 1016115
02:00−1ene3767100 0.0 1016143
05:00−1e4965100 0.0 1015197
08:00−1e410714 0.0 1015219
11:00+3ese576710 0.0 1014364
14:00+5ese457399 0.0 1013435
17:00+2ese3791100 0.0 1014142
20:00+4ese41087100 0.0 1014276
6 december, mon
mon623:00+5se4992100 0.0 1014265
02:00+5se3796100 0.0 1014196
05:00+6sse3698100 0.2 1014172
08:00+7sse2499100 0.3 1015124
11:00+9sse4794100 0.0 1015304
14:00+10sse51092100 0.3 1015431
17:00+9se61196100 5.8 1015336
20:00+9sse61491100 5.9 1015422